Regional Weather Roundup
Issued by NWS

Home | Current Version | Previous Version | Text Only | Print | Product List | Glossary On
Versions: 1 2 3 4 5 6 7 8 9 10 11 12 13 14 15 16 17 18 19 20 21 22 23 24 25 26 27 28 29 30 31 32 33 34 35 36 37 38 39 40 41 42 43 44 45 46 47 48 49 50
000
ASUS43 KBIS 302210
RWRND

NORTH DAKOTA REGIONAL WEATHER ROUNDUP
NATIONAL WEATHER SERVICE BISMARCK ND
500 PM CDT THU MAR 30 2017

NOTE: "FAIR" INDICATES FEW OR NO CLOUDS BELOW 12,000 FEET WITH NO
SIGNIFICANT WEATHER AND/OR OBSTRUCTIONS TO VISIBILITY.


NDZ001>003-009>011-017-302300-
NORTHWEST NORTH DAKOTA

CITY           SKY/WX    TMP DP  RH WIND       PRES   REMARKS
WILLISTON      FAIR      64  41  42 SE9       29.68S
MINOT          CLOUDY    56  38  50 SE12      29.76R
MINOT AFB      CLOUDY    53  40  63 S10       29.75R
$$

NDZ018>021-031>035-040>046-302300-
SOUTHWEST NORTH DAKOTA

CITY           SKY/WX    TMP DP  RH WIND       PRES   REMARKS
BISMARCK       FAIR      59  34  39 S12       29.79S
DICKINSON      PTSUNNY   56  33  42 S20       29.70S
GARRISON         N/A     55  36  48 S14       29.75S
HETTINGER ARPT CLOUDY    55  33  43 SE14      29.75S
$$

NDZ004>008-012>016-024-026-027-054-302300-
NORTHEAST NORTH DAKOTA

CITY           SKY/WX    TMP DP  RH WIND       PRES   REMARKS
GRAND FORKS    MOSUNNY   54  42  64 S7        29.85F
GRND FRKS AFB  SUNNY     53  38  56 S8        29.85F
DEVILS LAKE    FAIR      53  38  56 SE14      29.83R
$$

NDZ022-023-025-028>030-036>039-047>053-302300-
SOUTHEAST NORTH DAKOTA

CITY           SKY/WX    TMP DP  RH WIND       PRES   REMARKS
FARGO          SUNNY     56  36  47 SE5       29.84S
JAMESTOWN      FAIR      51  38  60 SE10      29.82S
$$





USA.gov is the U.S. government's official web portal to all federal, state and local government web resources and services.